Weather History for Cairo, IL

Change the Weather History Date:

Friday, January 25, 2013

  Actual Average Record
Temperature  
Mean Temperature 35 °F -  
Max Temperature 42 °F 45 °F 75 °F (1950)
Min Temperature 28 °F 29 °F 8 °F (1961)
Degree Days  
Heating Degree Days 30    
Moisture  
Dew Point 24 °F    
Average Humidity 68    
Maximum Humidity 87    
Minimum Humidity 38    
Precipitation  
Precipitation 0.01 in - - ()
Sea Level Pressure  
Sea Level Pressure 30.18 in    
Wind  
Wind Speed 5 mph (NNE)    
Max Wind Speed 9 mph    
Max Gust Speed -    
Visibility 9 miles    
Events Snow    
Averages and records for this station are not official NWS values.
T = Trace of Precipitation, MM = Missing Value Source: NWS Daily Summary

Daily Weather History Graph

Daily Weather History Graph

Search for Another Location

Airport:

Trip Planner

Search our weather history database for the weather conditions in past years. The results will help you decide how hot, cold, wet, or windy it might be!

Date:

Astronomy

Jan. 25, 2013 Rise Set
Actual Time 7:04 AM CST 5:14 PM CST
Civil Twilight 6:36 AM CST 5:42 PM CST
Nautical Twilight 6:05 AM CST 6:13 PM CST
Astronomical Twilight 5:34 AM CST 6:44 PM CST
Moon 4:11 PM CST (1/25) 5:43 AM CST (1/25)
Length of Visible Light 11h 05m
Length of Day
10h 10m
Waxing Gibbous, 98% of the Moon is Illuminated
Jan 25
Waxing Gibbous
Jan 26
Full
Feb 3
Last Quarter
Feb 10
New
Feb 17
First Quarter

Hourly Weather History & Observations

Time (CST) Temp. Windchill Dew Point Humidity Pressure Visibility Wind Dir Wind Speed Gust Speed Precip Events Conditions
12:15 AM 33.8 °F 28.6 °F 10.4 °F 38% 30.26 in 10.0 mi East 5.8 mph - N/A   Overcast
12:35 AM 33.8 °F 27.7 °F 12.2 °F 41% 30.24 in 10.0 mi East 6.9 mph - N/A   Overcast
12:55 AM 33.8 °F 26.4 °F 12.2 °F 41% 30.22 in 10.0 mi East 9.2 mph - N/A   Overcast
1:15 AM 33.8 °F 26.4 °F 10.4 °F 38% 30.22 in 10.0 mi ESE 9.2 mph - N/A   Overcast
1:35 AM 33.8 °F 27.7 °F 12.2 °F 41% 30.22 in 10.0 mi East 6.9 mph - N/A   Overcast
1:55 AM 33.8 °F 27.7 °F 12.2 °F 41% 30.21 in 10.0 mi ESE 6.9 mph - N/A   Overcast
2:15 AM 33.8 °F 27.7 °F 12.2 °F 41% 30.21 in 10.0 mi ESE 6.9 mph - N/A   Overcast
2:35 AM 33.8 °F 27.7 °F 14.0 °F 44% 30.20 in 10.0 mi ENE 6.9 mph - N/A   Overcast
2:55 AM 32.0 °F 27.5 °F 15.8 °F 51% 30.19 in 7.0 mi NE 4.6 mph - N/A Snow Light Snow
3:15 AM 32.0 °F 26.4 °F 21.2 °F 64% 30.18 in 7.0 mi ENE 5.8 mph - N/A Snow Light Snow
3:35 AM 32.0 °F 26.4 °F 23.0 °F 69% 30.16 in 10.0 mi ENE 5.8 mph - 0.01 in   Overcast
3:55 AM 30.2 °F 24.3 °F 23.0 °F 75% 30.16 in 10.0 mi ENE 5.8 mph - 0.01 in   Overcast
4:15 AM 30.2 °F 22.6 °F 23.0 °F 75% 30.15 in 10.0 mi NE 8.1 mph - N/A   Overcast
4:35 AM 30.2 °F 23.4 °F 23.0 °F 75% 30.15 in 10.0 mi NNE 6.9 mph - N/A   Overcast
4:55 AM 30.2 °F 24.3 °F 23.0 °F 75% 30.14 in 10.0 mi ENE 5.8 mph - N/A   Overcast
5:15 AM 30.2 °F 25.4 °F 23.0 °F 75% 30.14 in 10.0 mi ENE 4.6 mph - N/A   Overcast
5:35 AM 30.2 °F 24.3 °F 23.0 °F 75% 30.13 in 10.0 mi ENE 5.8 mph - N/A   Overcast
5:55 AM 30.2 °F 26.7 °F 23.0 °F 75% 30.15 in 10.0 mi NNE 3.5 mph - N/A   Overcast
6:15 AM 30.2 °F - 24.8 °F 80% 30.15 in 10.0 mi Calm Calm - N/A   Overcast
6:35 AM 30.2 °F 26.7 °F 24.8 °F 80% 30.14 in 10.0 mi NE 3.5 mph - N/A   Overcast
6:55 AM 30.2 °F 26.7 °F 24.8 °F 80% 30.14 in 10.0 mi NE 3.5 mph - N/A   Overcast
7:15 AM 30.2 °F 25.4 °F 24.8 °F 80% 30.15 in 10.0 mi North 4.6 mph - N/A   Overcast
7:35 AM 30.2 °F 24.3 °F 24.8 °F 80% 30.14 in 10.0 mi NNE 5.8 mph - N/A   Overcast
7:55 AM 30.2 °F 25.4 °F 24.8 °F 80% 30.15 in 10.0 mi NNE 4.6 mph - N/A   Overcast
8:15 AM 30.2 °F - 24.8 °F 80% 30.14 in 10.0 mi Calm Calm - N/A   Overcast
8:35 AM 32.0 °F 28.7 °F 24.8 °F 75% 30.16 in 10.0 mi North 3.5 mph - N/A   Overcast
8:55 AM 32.0 °F 28.7 °F 24.8 °F 75% 30.17 in 10.0 mi North 3.5 mph - N/A   Scattered Clouds
9:15 AM 32.0 °F 27.5 °F 24.8 °F 75% 30.18 in 10.0 mi North 4.6 mph - N/A   Scattered Clouds
9:35 AM 32.0 °F 28.7 °F 24.8 °F 75% 30.18 in 10.0 mi North 3.5 mph - N/A   Mostly Cloudy
9:55 AM 32.0 °F - 24.8 °F 75% 30.19 in 10.0 mi Calm Calm - N/A   Overcast
10:15 AM 32.0 °F - 24.8 °F 75% 30.19 in 10.0 mi Calm Calm - N/A   Overcast
10:35 AM 33.8 °F - 24.8 °F 70% 30.19 in 10.0 mi Calm Calm - N/A   Overcast
10:55 AM 33.8 °F - 24.8 °F 70% 30.19 in 10.0 mi Calm Calm - N/A   Mostly Cloudy
11:15 AM 35.6 °F - 24.8 °F 65% 30.19 in 10.0 mi Calm Calm - N/A   Mostly Cloudy
11:35 AM 37.4 °F 33.8 °F 26.6 °F 65% 30.18 in 10.0 mi WNW 4.6 mph - N/A   Overcast
11:55 AM 39.2 °F 34.2 °F 28.4 °F 65% 30.17 in 10.0 mi NNW 6.9 mph - N/A   Overcast
12:15 PM 39.2 °F 33.0 °F 26.6 °F 61% 30.17 in 10.0 mi NNW 9.2 mph - N/A   Overcast
12:35 PM 39.2 °F 34.2 °F 26.6 °F 61% 30.15 in 10.0 mi North 6.9 mph - N/A   Overcast
12:55 PM 41.0 °F 37.1 °F 26.6 °F 57% 30.15 in 10.0 mi NNW 5.8 mph - N/A   Overcast
1:15 PM 41.0 °F 36.4 °F 26.6 °F 57% 30.15 in 10.0 mi NNW 6.9 mph - N/A   Overcast
1:35 PM 41.0 °F 37.1 °F 28.4 °F 61% 30.15 in 10.0 mi NNW 5.8 mph - N/A   Overcast
1:55 PM 41.0 °F 37.1 °F 26.6 °F 57% 30.15 in 10.0 mi NNW 5.8 mph - N/A   Overcast
2:15 PM 42.8 °F 39.3 °F 26.6 °F 53% 30.15 in 10.0 mi WSW 5.8 mph - N/A   Mostly Cloudy
2:35 PM 42.8 °F 40.1 °F 26.6 °F 53% 30.15 in 10.0 mi SW 4.6 mph - N/A   Clear
2:55 PM 42.8 °F 40.1 °F 26.6 °F 53% 30.16 in 10.0 mi WSW 4.6 mph - N/A   Clear
3:15 PM 42.8 °F - 26.6 °F 53% 30.16 in 10.0 mi Calm Calm - N/A   Clear
3:35 PM 42.8 °F 39.3 °F 28.4 °F 57% 30.15 in 10.0 mi West 5.8 mph - N/A   Clear
3:55 PM 42.8 °F 39.3 °F 28.4 °F 57% 30.16 in 10.0 mi West 5.8 mph - N/A   Clear
4:15 PM 42.8 °F 39.3 °F 28.4 °F 57% 30.16 in 10.0 mi WSW 5.8 mph - N/A   Clear
4:35 PM 41.0 °F 39.0 °F 28.4 °F 61% 30.16 in 10.0 mi SW 3.5 mph - N/A   Clear
4:55 PM 41.0 °F 39.0 °F 28.4 °F 61% 30.17 in 10.0 mi SW 3.5 mph - N/A   Clear
5:15 PM 39.2 °F 37.0 °F 26.6 °F 61% 30.17 in 10.0 mi SSW 3.5 mph - N/A   Clear
5:35 PM 39.2 °F 35.9 °F 28.4 °F 65% 30.17 in 10.0 mi South 4.6 mph - N/A   Clear
5:55 PM 37.4 °F 33.8 °F 26.6 °F 65% 30.18 in 10.0 mi SSW 4.6 mph - N/A   Clear
6:15 PM 35.6 °F 32.8 °F 26.6 °F 70% 30.20 in 10.0 mi SSW 3.5 mph - N/A   Clear
6:35 PM 35.6 °F 31.7 °F 28.4 °F 75% 30.20 in 10.0 mi SSW 4.6 mph - N/A   Clear
6:55 PM 35.6 °F 32.8 °F 28.4 °F 75% 30.20 in 10.0 mi South 3.5 mph - N/A   Clear
7:15 PM 35.6 °F 31.7 °F 28.4 °F 75% 30.20 in 10.0 mi SSW 4.6 mph - N/A   Clear
7:35 PM 35.6 °F 32.8 °F 28.4 °F 75% 30.20 in 10.0 mi South 3.5 mph - N/A   Clear
7:55 PM 32.0 °F - 26.6 °F 80% 30.20 in 10.0 mi Calm Calm - N/A   Clear
8:15 PM 35.6 °F - 28.4 °F 75% 30.20 in 10.0 mi Calm Calm - N/A   Clear
8:35 PM 32.0 °F - 24.8 °F 75% 30.20 in 7.0 mi Calm Calm - N/A   Clear
8:55 PM 30.2 °F - 24.8 °F 80% 30.21 in 7.0 mi Calm Calm - N/A   Clear
9:15 PM 30.2 °F - 24.8 °F 80% 30.21 in 7.0 mi Calm Calm - N/A   Clear
9:35 PM 30.2 °F - 26.6 °F 86% 30.21 in 5.0 mi Calm Calm - N/A   Haze
9:55 PM 28.4 °F 23.3 °F 24.8 °F 86% 30.23 in 7.0 mi WSW 4.6 mph - N/A   Clear
10:15 PM 32.0 °F 27.5 °F 26.6 °F 80% 30.23 in 7.0 mi WSW 4.6 mph - N/A   Clear
10:35 PM 32.0 °F 28.7 °F 28.4 °F 87% 30.23 in 7.0 mi SW 3.5 mph - N/A   Clear
10:55 PM 32.0 °F - 26.6 °F 80% 30.24 in 7.0 mi Calm Calm - N/A   Clear
11:15 PM 32.0 °F - 28.4 °F 87% 30.25 in 7.0 mi Calm Calm - N/A   Clear
11:35 PM 30.2 °F - 26.6 °F 86% 30.25 in 7.0 mi Calm Calm - N/A   Clear
11:55 PM 28.4 °F - 23.0 °F 80% 30.26 in 5.0 mi Calm Calm - N/A   Haze